• Join FlightAware (Why Join?)
  • Login
  • US Flag GB Flag 
15:28 EDT


 

Airport Tracker/Info


-or-


 

Live Flight TrackerFlight Track Log ✈ UAL906 ✈ 30-Apr-2013 ✈ KORD - EDDM / MUC

Flight Track Log - Related Links

Times and Time Zones

All times are in EDT time to prevent confusion due to time zone crossing. See the UAL906 flight status page for this flight to view local times or setup timezone preferences in your user account.

Time Position Orientation Groundspeed Altitude Reporting Facility
EDT Latitude Longitude Course Direction KTS MPH feet Rate Location/Type
19:19 41.9690 -87.9380 246° West 175 201 1,300  Level FlightAware
19:19 41.9680 -87.9720 268° West 198 228 2,300 1,800 Climbing FlightAware
19:20 41.9660 -88.0030 265° West 218 251 3,000 1,920 Climbing FlightAware
19:20 41.9640 -88.0480 267° West 240 276 4,100 2,100 Climbing FlightAware
19:21 41.9610 -88.0910 265° West 256 295 5,100 2,580 Climbing FlightAware
19:21 41.9590 -88.1340 266° West 259 298 6,500 3,240 Climbing FlightAware
19:22 41.9690 -88.1790 287° West 272 313 8,100 2,880 Climbing FlightAware
19:22 41.9970 -88.2150 316° Northwest 285 328 9,400 2,460 Climbing FlightAware
19:22 42.0250 -88.2370 330° Northwest 309 356 10,400 2,640 Climbing FlightAware
19:23 42.0840 -88.1980 26° Northeast 330 380 12,500 2,640 Climbing FlightAware
19:24 42.1260 -88.1420 45° Northeast 328 377 14,200 2,220 Climbing FlightAware
19:25 42.1840 -88.1120 21° North 343 395 15,500 1,620 Climbing FlightAware
19:25 42.2280 -88.0810 28° Northeast 368 423 16,100 900 Climbing FlightAware
19:26 42.2920 -88.0340 29° Northeast 410 472 16,600 900 Climbing FlightAware
19:26 42.3700 -87.9750 29° Northeast 444 511 17,400 1,800 Climbing FlightAware
19:27 42.4430 -87.9220 28° Northeast 443 510 19,200 3,000 Climbing FlightAware
19:28 42.5200 -87.8650 29° Northeast 421 484 21,700 2,580 Climbing FlightAware
19:29 42.5910 -87.8120 29° Northeast 425 489 22,900 1,560 Climbing FlightAware
19:29 42.6630 -87.7580 29° Northeast 438 504 23,800 1,320 Climbing FlightAware
19:30 42.7420 -87.6980 29° Northeast 450 518 24,800 1,320 Climbing FlightAware
19:31 42.8130 -87.6410 30° Northeast 461 531 25,700 1,320 Climbing FlightAware
19:31 42.8760 -87.5580 44° Northeast 469 540 26,600 960 Climbing FlightAware
19:32 42.9440 -87.4520 49° Northeast 491 565 27,100 1,020 Climbing FlightAware
19:33 43.0230 -87.3260 49° Northeast 497 572 28,300 1,620 Climbing FlightAware
19:34 43.0910 -87.2160 50° Northeast 491 565 29,800 1,800 Climbing FlightAware
19:35 43.1730 -87.0870 49° Northeast 490 564 31,300 1,380 Climbing FlightAware
19:35 43.2320 -86.9920 50° Northeast 488 562 32,000 480 Climbing FlightAware
19:36 43.2940 -86.8940 49° Northeast 488 562 32,000  Level FlightAware
19:37 43.3560 -86.7930 50° Northeast 485 558 32,000  Level FlightAware
19:37 43.4140 -86.6980 50° Northeast 485 558 32,000 480 Level FlightAware
19:38 43.4790 -86.5940 49° Northeast 483 556 32,700 660 Climbing FlightAware
19:39 43.5360 -86.5010 50° Northeast 484 557 33,000 180 Climbing FlightAware
19:39 43.5940 -86.4060 50° Northeast 484 557 33,000  Level FlightAware
19:40 43.6600 -86.2980 50° Northeast 483 556 33,000  Level FlightAware
19:41 43.7070 -86.1940 58° Northeast 485 558 33,000  Level FlightAware
19:42 43.7440 -86.0860 65° Northeast 487 560 33,000  Level FlightAware
19:42 43.7900 -85.9600 63° Northeast 487 560 33,000  Level FlightAware
19:43 43.8320 -85.8500 62° Northeast 485 558 33,000  Level FlightAware
19:44 43.8790 -85.7280 62° Northeast 483 556 33,000  Level FlightAware
19:44 43.9220 -85.6170 62° Northeast 483 556 33,000  Level FlightAware
19:45 43.9650 -85.4950 64° Northeast 484 557 33,000  Level FlightAware
19:46 44.0060 -85.3780 64° Northeast 483 556 33,000  Level FlightAware
19:46 44.0440 -85.2710 64° Northeast 484 557 33,000  Level FlightAware
19:47 44.0880 -85.1430 64° Northeast 487 560 33,000  Level FlightAware
19:48 44.1280 -85.0310 64° Northeast 487 560 33,000  Level FlightAware
19:49 44.1730 -84.9010 64° Northeast 488 562 33,000  Level FlightAware
19:49 44.2120 -84.7870 64° Northeast 488 562 33,000  Level FlightAware
19:50 44.2500 -84.6770 64° Northeast 488 562 33,000  Level FlightAware
19:51 44.2930 -84.5510 64° Northeast 489 563 33,000  Level FlightAware
19:51 44.3310 -84.4380 65° Northeast 489 563 33,000  Level FlightAware
19:52 44.3710 -84.3200 65° Northeast 489 563 33,000  Level FlightAware
19:53 44.4140 -84.1940 64° Northeast 488 562 33,000  Level FlightAware
19:53 44.4530 -84.0790 65° Northeast 488 562 33,000  Level FlightAware
19:54 44.4880 -83.9730 65° Northeast 487 560 33,000  Level FlightAware
19:55 44.5340 -83.8350 65° Northeast 487 560 33,000  Level FlightAware
19:56 44.5720 -83.7200 65° Northeast 488 562 33,000  Level FlightAware
19:56 44.6130 -83.5960 65° Northeast 487 560 33,000  Level FlightAware
19:57 44.6510 -83.4790 65° Northeast 487 560 33,000  Level FlightAware
19:58 44.6930 -83.3510 65° Northeast 487 560 33,000  Level FlightAware
19:58 44.7310 -83.2370 65° Northeast 487 560 33,000  Level FlightAware
19:59 44.7660 -83.1260 66° East 487 560 33,000  Level FlightAware
20:00 44.8100 -82.9900 65° Northeast 487 560 33,000  Level FlightAware
20:00 44.8480 -82.8740 65° Northeast 487 560 33,000  Level FlightAware
20:01 44.8880 -82.7480 66° East 487 560 33,000  Level FlightAware
20:02 44.9270 -82.6250 66° East 487 560 33,000  Level FlightAware
20:03 44.9610 -82.5170 66° East 488 562 33,000  Level FlightAware
20:03 45.0040 -82.3800 66° East 487 560 33,000  Level FlightAware
20:04 45.0400 -82.2650 66° East 487 560 33,000  Level FlightAware
20:05 45.0770 -82.1480 66° East 487 560 33,000  Level FlightAware
20:05 45.1180 -82.0150 66° East 487 560 33,000  Level FlightAware
20:06 45.1520 -81.9050 66° East 488 562 33,000  Level FlightAware
20:07 45.1950 -81.7670 66° East 488 562 33,000  Level FlightAware
20:07 45.2290 -81.6550 67° East 487 560 33,000  Level FlightAware
20:08 45.2700 -81.5210 66° East 487 560 33,000  Level FlightAware
20:09 45.3060 -81.4000 67° East 488 562 33,000  Level FlightAware
20:10 45.3410 -81.2860 66° East 488 562 33,000  Level FlightAware
20:10 45.3820 -81.1500 67° East 486 559 33,000  Level FlightAware
20:11 45.4110 -81.0520 67° East 484 557 33,000  Level FlightAware
20:12 45.4510 -80.9160 67° East 479 551 33,000  Level FlightAware
20:12 45.4860 -80.7980 67° East 479 551 33,000  Level FlightAware
20:13 45.5180 -80.6910 67° East 478 550 33,000  Level FlightAware
20:14 45.5590 -80.5510 67° East 477 549 33,000  Level FlightAware
20:14 45.5920 -80.4360 68° East 477 549 33,000  Level FlightAware
20:15 45.6290 -80.3100 67° East 477 549 33,000  Level FlightAware
20:16 45.6600 -80.2010 68° East 477 549 33,000  Level FlightAware
20:17 45.6970 -80.0730 67° East 476 548 33,000  Level FlightAware
20:17 45.7330 -79.9480 68° East 476 548 33,000  Level FlightAware
20:18 45.7650 -79.8340 68° East 476 548 33,000  Level FlightAware
20:19 45.8010 -79.7100 67° East 475 547 33,000  Level FlightAware
20:19 45.8380 -79.5780 68° East 476 548 33,000  Level FlightAware
20:20 45.8680 -79.4690 68° East 477 549 33,000  Level FlightAware
20:21 45.9040 -79.3420 68° East 476 548 33,000  Level FlightAware
20:21 45.9380 -79.2180 68° East 475 547 33,000  Level FlightAware
20:22 45.9740 -79.0880 68° East 475 547 33,000  Level FlightAware
20:23 46.0050 -78.9760 68° East 475 547 33,000  Level FlightAware
20:24 46.0390 -78.8510 69° East 475 547 33,000  Level FlightAware
20:24 46.0760 -78.7130 69° East 475 547 33,000  Level FlightAware
20:25 46.1080 -78.5960 68° East 475 547 33,000  Level FlightAware
20:26 46.1360 -78.4900 69° East 474 545 33,000  Level FlightAware
20:26 46.1750 -78.3460 69° East 474 545 33,000  Level FlightAware
20:27 46.2140 -78.1980 69° East 474 545 33,000  Level FlightAware
20:28 46.2480 -78.0710 69° East 475 547 33,000  Level FlightAware
20:29 46.2940 -77.8970 69° East 474 545 33,000  Level FlightAware
20:30 46.3200 -77.7950 70° East 475 547 33,000  Level FlightAware
20:31 46.3670 -77.6160 69° East 476 548 33,000  Level FlightAware
20:31 46.3990 -77.4900 70° East 476 548 33,000  Level FlightAware
20:32 46.4460 -77.3080 69° East 476 548 33,000  Level FlightAware
20:33 46.4760 -77.1910 70° East 475 547 33,000  Level FlightAware
20:34 46.5080 -77.0700 69° East 475 547 33,000  Level FlightAware
20:34 46.5280 -76.9940 69° East 475 547 33,000  Level FlightAware
20:35 46.5550 -76.8920 69° East 475 547 33,000  Level FlightAware
20:35 46.5810 -76.7910 69° East 475 547 33,000  Level FlightAware
20:37 46.6590 -76.4580 71° East 475 547 33,000  Level FlightAware
20:38 46.6890 -76.3370 70° East 475 547 33,000  Level FlightAware
20:38 46.7170 -76.2220 70° East 475 547 33,000  Level FlightAware
20:41 46.8580 -75.6330 71° East 472 543 33,000  Level FlightAware
20:43 46.9210 -75.3640 71° East 471 542 33,000  Level FlightAware
20:44 46.9780 -75.1190 71° East 469 540 33,000  Level FlightAware
20:45 47.0080 -74.9880 71° East 468 539 33,000  Level FlightAware
20:46 47.0430 -74.8360 71° East 467 537 33,000  Level FlightAware
20:46 47.0640 -74.7430 72° East 466 536 33,000  Level FlightAware
20:47 47.1040 -74.5650 72° East 464 534 33,000  Level FlightAware
20:48 47.1270 -74.4650 71° East 462 532 33,000  Level FlightAware
20:49 47.1610 -74.3100 72° East 460 529 33,000  Level FlightAware
20:50 47.1860 -74.2010 71° East 459 528 33,000  Level FlightAware
20:50 47.2170 -74.0570 72° East 458 527 33,000  Level FlightAware
20:51 47.2440 -73.9380 71° East 457 526 33,000  Level FlightAware
20:52 47.2710 -73.8110 73° East 457 526 33,000  Level FlightAware
20:52 47.2990 -73.6810 72° East 456 525 33,000  Level FlightAware
20:53 47.3167 -73.5667 72° East 450 518 33,000  Level Montreal Center
20:54 47.3500 -73.3833 75° East 450 518 33,000  Level Montreal Center
20:55 47.3833 -73.2167 73° East 450 518 33,000  Level Montreal Center
20:56 47.4333 -73.0333 68° East 450 518 33,000  Level Montreal Center
20:57 47.4667 -72.8333 76° East 450 518 33,000  Level Montreal Center
20:58 47.5000 -72.6833 72° East 450 518 33,000  Level Montreal Center
21:00 47.5833 -72.3000 72° East 450 518 33,000  Level Montreal Center
21:01 47.6000 -72.1333 82° East 450 518 33,000  Level Montreal Center
21:02 47.6500 -71.9500 68° East 450 518 33,000  Level Montreal Center
21:03 47.6833 -71.7833 73° East 450 518 33,000  Level Montreal Center
21:04 47.7167 -71.6000 75° East 460 529 33,000  Level Montreal Center
21:05 47.7500 -71.4167 75° East 450 518 33,000  Level Montreal Center
21:06 47.7833 -71.2333 75° East 450 518 33,000  Level Montreal Center
21:07 47.8167 -71.0333 76° East 450 518 33,000  Level Montreal Center
21:13 48.0280 -69.9800 76° East 464 534 33,000  Level FlightAware
21:14 48.0520 -69.8430 75° East 467 537 33,000  Level FlightAware
21:15 48.0850 -69.6580 75° East 470 541 33,000  Level FlightAware
21:15 48.1080 -69.5270 75° East 470 541 33,000  Level FlightAware
21:16 48.0850 -69.6580 255° West 471 542 33,000  Level FlightAware
21:17 48.1680 -69.2240 74° East 475 547 33,000  Level FlightAware
21:18 48.1940 -69.1190 70° East 475 547 33,000  Level FlightAware
21:19 48.2260 -68.9870 70° East 475 547 33,000  Level FlightAware
21:19 48.2510 -68.8810 70° East 475 547 33,000  Level FlightAware
21:20 48.2770 -68.7760 70° East 475 547 33,000  Level FlightAware
21:21 48.3020 -68.6700 70° East 475 547 33,000  Level FlightAware
21:21 48.3280 -68.5650 70° East 475 547 33,000  Level FlightAware
21:22 48.3600 -68.4330 70° East 475 547 33,000  Level FlightAware
21:23 48.3850 -68.3270 70° East 475 547 33,000  Level FlightAware
21:23 48.4110 -68.2210 70° East 475 547 33,000  Level FlightAware
21:24 48.4360 -68.1160 70° East 475 547 33,000  Level FlightAware
21:25 48.4680 -67.9830 70° East 475 547 33,000  Level FlightAware
21:26 48.4940 -67.8770 70° East 475 547 33,000  Level FlightAware
21:26 48.5190 -67.7710 70° East 475 547 33,000  Level FlightAware
21:27 48.7000 -67.4667 70° East 460 529 33,000  Level Gander Center
21:28 48.7500 -67.3000 65° Northeast 460 529 33,000  Level Gander Center
21:29 48.8167 -67.1167 61° Northeast 460 529 33,000  Level Gander Center
21:30 48.8500 -66.9500 73° East 460 529 33,000  Level Gander Center
21:31 48.9167 -66.7500 63° Northeast 460 529 33,000  Level Gander Center
21:32 48.9667 -66.5833 65° Northeast 460 529 33,000  Level Gander Center
21:33 49.0167 -66.3833 69° East 460 529 33,000  Level Gander Center
21:34 49.0833 -66.2167 59° Northeast 460 529 33,000  Level Gander Center
21:35 49.1167 -66.0333 74° East 460 529 33,000  Level Gander Center
21:36 49.1667 -65.8667 65° Northeast 460 529 33,000  Level Gander Center
21:37 49.2167 -65.6833 67° East 460 529 33,000  Level Gander Center
21:38 49.2667 -65.4833 69° East 460 529 33,000  Level Gander Center
21:39 49.3167 -65.3167 65° Northeast 460 529 33,000  Level Gander Center
21:40 49.3667 -65.1333 67° East 460 529 33,000  Level Gander Center
21:41 49.4333 -64.9500 61° Northeast 460 529 33,000  Level Gander Center
21:42 49.4667 -64.7500 76° East 460 529 33,000  Level Gander Center
21:43 49.5167 -64.5833 65° Northeast 460 529 33,000  Level Gander Center
21:44 49.5667 -64.4000 67° East 460 529 33,000  Level Gander Center
21:45 49.6167 -64.2167 67° East 460 529 33,000  Level Gander Center
21:46 49.6500 -64.0500 73° East 460 529 33,000  Level Gander Center
21:47 49.7000 -63.8333 70° East 460 529 33,000  Level Gander Center
21:48 49.7667 -63.6667 58° Northeast 460 529 33,000  Level Gander Center
21:49 49.8000 -63.4833 74° East 460 529 33,000  Level Gander Center
21:50 49.8500 -63.3000 67° East 460 529 33,000  Level Gander Center
21:51 49.9000 -63.1000 69° East 460 529 33,000  Level Gander Center
21:52 49.9333 -62.9500 71° East 460 529 33,000  Level Gander Center
21:53 50.0000 -62.7333 64° Northeast 460 529 33,000  Level Gander Center
21:54 50.0333 -62.5833 71° East 470 541 33,000  Level Gander Center
21:55 50.0833 -62.3833 69° East 450 518 33,000  Level Gander Center
21:56 50.1167 -62.2000 74° East 450 518 33,000  Level Gander Center
21:57 50.1667 -62.0167 67° East 460 529 33,000  Level Gander Center
21:58 50.2000 -61.8333 74° East 450 518 33,000  Level Gander Center
21:59 50.2500 -61.6167 70° East 460 529 33,000  Level Gander Center
22:00 50.2833 -61.4333 74° East 460 529 33,000  Level Gander Center
22:01 50.3333 -61.2833 62° Northeast 450 518 33,000  Level Gander Center
22:02 50.3667 -61.0667 76° East 460 529 33,000  Level Gander Center
22:03 50.4167 -60.8833 67° East 460 529 33,000  Level Gander Center
22:04 50.4667 -60.7000 67° East 450 518 33,000  Level Gander Center
22:05 50.5000 -60.5167 74° East 460 529 33,000  Level Gander Center
22:06 50.5500 -60.3167 68° East 460 529 33,000  Level Gander Center
22:07 50.5833 -60.1167 75° East 450 518 33,000  Level Gander Center
22:08 50.6333 -59.9333 67° East 460 529 33,000  Level Gander Center
22:09 50.6667 -59.7500 74° East 460 529 33,000  Level Gander Center
22:10 50.7167 -59.5667 67° East 450 518 33,000  Level Gander Center
22:12 50.7833 -59.2000 74° East 450 518 33,000  Level Gander Center
22:13 50.8500 -59.0000 62° Northeast 450 518 33,000  Level Gander Center
22:14 50.9000 -58.8167 67° East 450 518 33,000  Level Gander Center
22:15 50.9500 -58.6500 64° Northeast 450 518 33,000  Level Gander Center
22:17 50.9905 -58.4257 74° East  Level FlightAware Approximate
22:18 51.0833 -58.0833 74° East 450 518 33,000  Level Gander Center
22:19 51.1167 -57.9167 72° East 450 518 33,000  Level Gander Center
22:20 51.1833 -57.7333 60° Northeast 450 518 33,000  Level Gander Center
22:21 51.2333 -57.5500 66° East 450 518 33,000  Level Gander Center
22:22 51.2667 -57.3833 72° East 450 518 33,000  Level Gander Center
22:23 51.3167 -57.1833 68° East 450 518 33,000  Level Gander Center
22:24 51.3667 -57.0000 66° East 450 518 33,000  Level Gander Center
22:25 51.4000 -56.8333 72° East 450 518 33,000  Level Gander Center
22:25 51.4333 -56.7000 68° East 450 518 33,000  Level Gander Center
22:26 51.4667 -56.5667 68° East 450 518 33,000  Level Moncton Center
22:27 51.5167 -56.4000 64° Northeast 450 518 33,000  Level Moncton Center
22:27 51.5333 -56.3333 68° East 450 518 33,000  Level Gander Center
22:28 51.5500 -56.2500 72° East 450 518 33,000  Level Gander Center
22:29 51.6000 -56.0500 68° East 440 506 33,000  Level Gander Center
22:29 51.6167 -55.9500 75° East 440 506 33,000  Level Gander Center
22:30 51.6500 -55.8333 65° Northeast 450 518 33,000  Level Moncton Center
22:30 51.6667 -55.7500 72° East 440 506 33,000  Level Gander Center
22:31 51.7000 -55.7000 43° Northeast 450 518 33,000  Level Gander Center
22:31 51.7000 -55.5833 90° East 450 518 33,000  Level Gander Center
22:32 51.7333 -55.5000 57° Northeast 450 518 33,000  Level Gander Center
22:33 51.7667 -55.3000 75° East 440 506 33,000  Level Gander Center
22:34 51.8167 -55.1167 66° East 450 518 33,000  Level Gander Center
22:35 51.8500 -54.9167 75° East 450 518 33,000  Level Gander Center
22:35 51.8833 -54.8000 65° Northeast 450 518 33,000  Level Gander Center
22:36 51.9000 -54.7500 62° Northeast 450 518 33,000  Level Gander Center
22:37 51.9500 -54.5167 71° East 450 518 33,000  Level Gander Center
22:37 51.9833 -54.4333 57° Northeast 450 518 33,000  Level Gander Center
22:38 51.9833 -54.3500 90° East 450 518 33,000  Level Gander Center
22:38 52.0167 -54.2333 65° Northeast 450 518 33,000  Level Gander Center
22:39 52.0500 -54.0333 75° East 460 529 33,000  Level Gander Center
22:40 52.0667 -53.9500 72° East 460 529 33,000  Level Gander Center
22:40 52.1000 -53.8500 61° Northeast 460 529 33,000  Level Gander Center
22:41 52.1333 -53.6667 73° East 460 529 33,000  Level Gander Center
22:42 52.1667 -53.5667 61° Northeast 450 518 33,000  Level Gander Center
22:43 52.2000 -53.3833 73° East 470 541 33,000  Level Gander Center
22:43 52.2167 -53.2667 77° East 460 529 33,000  Level Gander Center
22:44 52.2667 -53.0500 69° East 470 541 33,000  Level Gander Center
22:45 52.3167 -52.8667 66° East 460 529 33,000  Level Gander Center
22:46 52.3500 -52.6667 75° East 460 529 33,000  Level Gander Center
22:47 52.4000 -52.4667 68° East 470 541 33,000  Level Gander Center
22:48 52.4500 -52.2667 68° East 460 529 33,000  Level Gander Center
22:49 52.4667 -52.1833 72° East 470 541 33,000  Level Gander Center
22:50 52.5167 -51.9833 68° East 470 541 33,000  Level Gander Center
22:51 52.5500 -51.7833 75° East 460 529 33,000  Level Gander Center
22:52 52.5833 -51.6000 73° East 460 529 33,000  Level Gander Center
22:54 52.6833 -51.1667 69° East 480 552 33,000  Level Gander Center
22:56 52.7745 -50.8368 65° Northeast  Level FlightAware Approximate
23:03 53.0813 -49.4288 76° East  Level FlightAware Approximate
23:04 53.1103 -49.2193 77° East  Level FlightAware Approximate
23:05 53.1390 -49.0094 77° East  Level FlightAware Approximate
23:06 53.1673 -48.7993 77° East  Level FlightAware Approximate
23:07 53.1953 -48.5888 77° East  Level FlightAware Approximate
23:08 53.2229 -48.3782 78° East  Level FlightAware Approximate
23:09 53.2501 -48.1672 78° East  Level FlightAware Approximate
23:10 53.2769 -47.9560 78° East  Level FlightAware Approximate
23:11 53.3034 -47.7445 78° East  Level FlightAware Approximate
23:12 53.3295 -47.5327 78° East  Level FlightAware Approximate
23:13 53.3552 -47.3207 78° East  Level FlightAware Approximate
23:14 53.3805 -47.1085 79° East  Level FlightAware Approximate
23:15 53.4055 -46.8959 79° East  Level FlightAware Approximate
23:16 53.4301 -46.6832 79° East  Level FlightAware Approximate
23:17 53.4543 -46.4702 79° East  Level FlightAware Approximate
23:18 53.4781 -46.2569 79° East  Level FlightAware Approximate
23:19 53.5015 -46.0434 79° East  Level FlightAware Approximate
23:20 53.5246 -45.8297 80° East  Level FlightAware Approximate
23:21 53.5473 -45.6158 80° East  Level FlightAware Approximate
23:22 53.5696 -45.4016 80° East  Level FlightAware Approximate
23:23 53.5915 -45.1872 80° East  Level FlightAware Approximate
23:24 53.6130 -44.9726 80° East  Level FlightAware Approximate
23:25 53.6342 -44.7577 80° East  Level FlightAware Approximate
23:26 53.6549 -44.5427 81° East  Level FlightAware Approximate
23:27 53.6753 -44.3274 81° East  Level FlightAware Approximate
23:28 53.6953 -44.1119 81° East  Level FlightAware Approximate
23:29 53.7149 -43.8963 81° East  Level FlightAware Approximate
23:30 53.7341 -43.6804 81° East  Level FlightAware Approximate
23:31 53.7529 -43.4643 82° East  Level FlightAware Approximate
23:32 53.7714 -43.2481 82° East  Level FlightAware Approximate
23:33 53.7894 -43.0316 82° East  Level FlightAware Approximate
23:34 53.8071 -42.8150 82° East  Level FlightAware Approximate
23:35 53.8244 -42.5982 82° East  Level FlightAware Approximate
23:36 53.8412 -42.3812 82° East  Level FlightAware Approximate
23:37 53.8577 -42.1640 83° East  Level FlightAware Approximate
23:38 53.8738 -41.9467 83° East  Level FlightAware Approximate
23:39 53.8895 -41.7292 83° East  Level FlightAware Approximate
23:40 53.9048 -41.5116 83° East  Level FlightAware Approximate
23:41 53.9197 -41.2938 83° East  Level FlightAware Approximate
23:42 53.9343 -41.0758 83° East  Level FlightAware Approximate
23:43 53.9484 -40.8577 84° East  Level FlightAware Approximate
23:44 53.9621 -40.6394 84° East  Level FlightAware Approximate
23:45 53.9754 -40.4210 84° East  Level FlightAware Approximate
23:46 53.9884 -40.2025 84° East  Level FlightAware Approximate
23:47 54.0023 -39.9842 76° East  Level FlightAware Approximate
23:48 54.0329 -39.7706 76° East  Level FlightAware Approximate
23:49 54.0632 -39.5568 76° East  Level FlightAware Approximate
23:50 54.0931 -39.3426 77° East  Level FlightAware Approximate
23:51 54.1226 -39.1281 77° East  Level FlightAware Approximate
23:52 54.1517 -38.9133 77° East  Level FlightAware Approximate
23:53 54.1804 -38.6982 77° East  Level FlightAware Approximate
23:54 54.2088 -38.4828 77° East  Level FlightAware Approximate
23:55 54.2367 -38.2671 77° East  Level FlightAware Approximate
23:56 54.2643 -38.0512 78° East  Level FlightAware Approximate
23:57 54.2915 -37.8349 78° East  Level FlightAware Approximate
23:58 54.3183 -37.6183 78° East  Level FlightAware Approximate
23:59 54.3447 -37.4015 78° East  Level FlightAware Approximate
00:00 54.3707 -37.1844 78° East  Level FlightAware Approximate
00:01 54.3964 -36.9670 78° East  Level FlightAware Approximate
00:02 54.4216 -36.7494 79° East  Level FlightAware Approximate
00:03 54.4465 -36.5315 79° East  Level FlightAware Approximate
00:04 54.4709 -36.3133 79° East  Level FlightAware Approximate
00:05 54.4950 -36.0949 79° East  Level FlightAware Approximate
00:06 54.5187 -35.8762 79° East  Level FlightAware Approximate
00:07 54.5420 -35.6572 80° East  Level FlightAware Approximate
00:08 54.5648 -35.4380 80° East  Level FlightAware Approximate
00:09 54.5873 -35.2186 80° East  Level FlightAware Approximate
00:10 54.6094 -34.9989 80° East  Level FlightAware Approximate
00:11 54.6311 -34.7790 80° East  Level FlightAware Approximate
00:12 54.6524 -34.5589 80° East  Level FlightAware Approximate
00:13 54.6733 -34.3385 81° East  Level FlightAware Approximate
00:14 54.6938 -34.1179 81° East  Level FlightAware Approximate
00:15 54.7139 -33.8971 81° East  Level FlightAware Approximate
00:16 54.7336 -33.6761 81° East  Level FlightAware Approximate
00:17 54.7528 -33.4548 81° East  Level FlightAware Approximate
00:18 54.7717 -33.2334 82° East  Level FlightAware Approximate
00:19 54.7902 -33.0117 82° East  Level FlightAware Approximate
00:20 54.8083 -32.7898 82° East  Level FlightAware Approximate
00:21 54.8260 -32.5678 82° East  Level FlightAware Approximate
00:22 54.8432 -32.3455 82° East  Level FlightAware Approximate
00:23 54.8601 -32.1231 82° East  Level FlightAware Approximate
00:24 54.8766 -31.9005 83° East  Level FlightAware Approximate
00:25 54.8926 -31.6777 83° East  Level FlightAware Approximate
00:26 54.9082 -31.4547 83° East  Level FlightAware Approximate
00:27 54.9235 -31.2316 83° East  Level FlightAware Approximate
00:28 54.9383 -31.0082 83° East  Level FlightAware Approximate
00:29 54.9527 -30.7848 84° East  Level FlightAware Approximate
00:30 54.9667 -30.5611 84° East  Level FlightAware Approximate
00:31 54.9803 -30.3373 84° East  Level FlightAware Approximate
00:32 54.9935 -30.1134 84° East  Level FlightAware Approximate
00:33 55.0045 -29.8891 86° East  Level FlightAware Approximate
00:34 55.0133 -29.6644 86° East  Level FlightAware Approximate
00:35 55.0217 -29.4395 86° East  Level FlightAware Approximate
00:36 55.0297 -29.2146 86° East  Level FlightAware Approximate
00:37 55.0373 -28.9897 87° East  Level FlightAware Approximate
00:38 55.0445 -28.7646 87° East  Level FlightAware Approximate
00:39 55.0512 -28.5394 87° East  Level FlightAware Approximate
00:40 55.0575 -28.3142 87° East  Level FlightAware Approximate
00:41 55.0635 -28.0889 87° East  Level FlightAware Approximate
00:42 55.0690 -27.8636 87° East  Level FlightAware Approximate
00:43 55.0741 -27.6382 88° East  Level FlightAware Approximate
00:44 55.0787 -27.4127 88° East  Level FlightAware Approximate
00:45 55.0830 -27.1872 88° East  Level FlightAware Approximate
00:46 55.0868 -26.9616 88° East  Level FlightAware Approximate
00:47 55.0902 -26.7360 88° East  Level FlightAware Approximate
00:48 55.0932 -26.5104 89° East  Level FlightAware Approximate
00:49 55.0958 -26.2847 89° East  Level FlightAware Approximate
00:50 55.0980 -26.0590 89° East  Level FlightAware Approximate
00:51 55.0997 -25.8333 89° East  Level FlightAware Approximate
00:52 55.1011 -25.6075 89° East  Level FlightAware Approximate
00:53 55.1020 -25.3818 90° East  Level FlightAware Approximate
00:54 55.1025 -25.1560 90° East  Level FlightAware Approximate
00:55 55.1025 -24.9303 90° East  Level FlightAware Approximate
00:56 55.1022 -24.7045 90° East  Level FlightAware Approximate
00:57 55.1015 -24.4788 90° East  Level FlightAware Approximate
00:58 55.1003 -24.2530 90° East  Level FlightAware Approximate
00:59 55.0987 -24.0273 91° East  Level FlightAware Approximate
01:00 55.0967 -23.8016 91° East  Level FlightAware Approximate
01:01 55.0943 -23.5759 91° East  Level FlightAware Approximate
01:02 55.0914 -23.3503 91° East  Level FlightAware Approximate
01:03 55.0882 -23.1246 91° East  Level FlightAware Approximate
01:04 55.0845 -22.8990 92° East  Level FlightAware Approximate
01:05 55.0804 -22.6735 92° East  Level FlightAware Approximate
01:06 55.0759 -22.4480 92° East  Level FlightAware Approximate
01:07 55.0710 -22.2226 92° East  Level FlightAware Approximate
01:08 55.0656 -21.9972 92° East  Level FlightAware Approximate
01:09 55.0599 -21.7719 92° East  Level FlightAware Approximate
01:10 55.0537 -21.5466 93° East  Level FlightAware Approximate
01:11 55.0471 -21.3215 93° East  Level FlightAware Approximate
01:12 55.0401 -21.0964 93° East  Level FlightAware Approximate
01:13 55.0327 -20.8714 93° East  Level FlightAware Approximate
01:14 55.0248 -20.6464 93° East  Level FlightAware Approximate
01:15 55.0166 -20.4216 94° East  Level FlightAware Approximate
01:16 55.0079 -20.1968 94° East  Level FlightAware Approximate
01:17 54.9988 -19.9722 94° East  Level FlightAware Approximate
01:18 54.9889 -19.7477 94° East  Level FlightAware Approximate
01:19 54.9785 -19.5233 95° East  Level FlightAware Approximate
01:20 54.9678 -19.2991 95° East  Level FlightAware Approximate
01:21 54.9566 -19.0750 95° East  Level FlightAware Approximate
01:22 54.9450 -18.8510 95° East  Level FlightAware Approximate
01:23 54.9330 -18.6271 96° East  Level FlightAware Approximate
01:24 54.9203 -18.4034 96° East  Level FlightAware Approximate
01:25 54.9073 -18.1798 96° East  Level FlightAware Approximate
01:26 54.8938 -17.9564 96° East  Level FlightAware Approximate
01:27 54.8800 -17.7332 96° East  Level FlightAware Approximate
01:28 54.8657 -17.5101 96° East  Level FlightAware Approximate
01:29 54.8510 -17.2871 96° East  Level FlightAware Approximate
01:30 54.8359 -17.0644 97° East  Level FlightAware Approximate
01:31 54.8204 -16.8418 97° East  Level FlightAware Approximate
01:32 54.8045 -16.6193 97° East  Level FlightAware Approximate
01:33 54.7882 -16.3971 97° East  Level FlightAware Approximate
01:34 54.7715 -16.1750 97° East  Level FlightAware Approximate
01:35 54.7543 -15.9531 98° East  Level FlightAware Approximate
01:36 54.7368 -15.7314 98° East  Level FlightAware Approximate
01:37 54.7188 -15.5099 98° East  Level FlightAware Approximate
01:38 54.7005 -15.2886 98° East  Level FlightAware Approximate
01:39 54.6818 -15.0675 98° East  Level FlightAware Approximate
01:40 54.6626 -14.8466 98° East  Level FlightAware Approximate
01:41 54.6431 -14.6259 99° East  Level FlightAware Approximate
01:41 54.4710 -11.0390 99° East 509 586 37,000  Level FlightAware
01:41 54.4470 -10.8780 104° East 510 587 37,000  Level FlightAware
01:42 54.6231 -14.4055 99° East  Level FlightAware Approximate
01:42 54.4200 -10.7050 105° East 510 587 37,000  Level FlightAware
01:43 54.3960 -10.5490 105° East 510 587 37,000  Level FlightAware
01:44 54.3680 -10.3720 105° East 509 586 37,000  Level FlightAware
01:44 54.3430 -10.2140 105° East 508 585 37,000  Level FlightAware
01:45 54.3150 -10.0430 106° East 507 583 37,000  Level FlightAware
01:46 54.2890 -9.8810 105° East 506 582 37,000  Level FlightAware
01:46 54.2650 -9.7350 106° East 506 582 37,000  Level FlightAware
01:47 54.2360 -9.5560 105° East 506 582 37,000  Level FlightAware
01:48 54.2100 -9.4030 106° East 505 581 37,000  Level FlightAware
01:49 54.1810 -9.2300 106° East 504 580 37,000  Level FlightAware
01:49 54.1540 -9.0730 106° East 504 580 37,000 -1,440 Level FlightAware
01:50 54.1365 -8.9692 106° East 460 529 35,500  Descending FlightAware UK
01:50 54.1270 -8.9180 106° East 506 582 37,000  Climbing FlightAware
01:50 54.1123 -8.8313 106° East 454 522 35,500 -2,580 Descending FlightAware UK
01:51 54.1006 -8.7628 106° East 454 522 35,400 3,600 Descending FlightAware UK
01:51 54.0970 -8.7440 106° East 505 581 37,000  Climbing FlightAware
01:51 54.0846 -8.6711 106° East 456 525 35,400 -2,580 Descending FlightAware UK
01:51 54.0728 -8.6026 106° East 456 525 35,500 4,140 Climbing FlightAware UK
01:51 54.0710 -8.5900 106° East 505 581 37,000  Climbing FlightAware
01:52 54.0568 -8.5116 106° East 454 522 35,500 -2,460 Descending FlightAware UK
01:52 54.0445 -8.4426 107° East 456 525 35,500 3,420 Level FlightAware UK
01:52 54.0410 -8.4220 107° East 505 581 37,000  Climbing FlightAware
01:52 54.0284 -8.3517 107° East 458 527 35,500 -2,700 Descending FlightAware UK
01:53 54.0162 -8.2835 107° East 458 527 35,500 3,720 Level FlightAware UK
01:53 54.0140 -8.2690 107° East 505 581 37,000 -300 Climbing FlightAware
01:53 53.9999 -8.1927 107° East 458 527 35,400 -2,700 Descending FlightAware UK
01:53 53.9878 -8.1244 107° East 460 529 35,400 4,320 Level FlightAware UK
01:53 53.9870 -8.1190 107° East 504 580 37,000 240 Climbing FlightAware
01:54 53.9717 -8.0334 107° East 458 527 35,500 -2,400 Descending FlightAware UK
01:54 53.9592 -7.9654 107° East 456 525 35,500 3,600 Level FlightAware UK
01:54 53.9560 -7.9490 107° East 504 580 37,000  Climbing FlightAware
01:54 53.9426 -7.8751 107° East 456 525 35,500 -2,580 Descending FlightAware UK
01:55 53.9302 -7.8073 107° East 458 527 35,500 3,900 Level FlightAware UK
01:55 53.9290 -7.8000 107° East 503 579 37,000  Climbing FlightAware
01:55 53.9137 -7.7171 107° East 456 525 35,500 -2,460 Descending FlightAware UK
01:55 53.9012 -7.6494 107° East 456 525 35,500  Level FlightAware UK
01:56 53.8887 -7.5817 107° East 454 522 35,500  Level FlightAware UK
01:56 53.8761 -7.5142 108° East 456 525 35,500  Level FlightAware UK
01:56 53.8635 -7.4467 108° East 458 527 35,500  Level FlightAware UK
01:57 53.8509 -7.3793 108° East 458 527 35,500  Level FlightAware UK
01:57 53.8383 -7.3120 108° East 460 529 35,500 2,880 Level FlightAware UK
01:57 53.8330 -7.2880 108° East 500 575 37,000  Climbing FlightAware
01:57 53.8170 -7.1992 108° East 464 534 35,500 -2,580 Descending FlightAware UK
01:58 53.8041 -7.1321 108° East 464 534 35,500  Level FlightAware UK
01:58 53.7912 -7.0650 108° East 464 534 35,500  Level FlightAware UK
01:58 53.7785 -6.9980 108° East 464 534 35,500  Level FlightAware UK
01:59 53.7657 -6.9312 108° East 462 532 35,500  Level FlightAware UK
01:59 53.7529 -6.8646 108° East 460 529 35,500 3,420 Level FlightAware UK
01:59 53.7520 -6.8630 108° East 497 572 37,000  Climbing FlightAware
01:59 53.7358 -6.7759 108° East 460 529 35,500 -2,700 Descending FlightAware UK
02:00 53.7231 -6.7094 108° East 462 532 35,500 3,720 Level FlightAware UK
02:00 53.7220 -6.7070 108° East 496 571 37,000  Climbing FlightAware
02:00 53.7058 -6.6212 108° East 460 529 35,500 -2,520 Descending FlightAware UK
02:00 53.6927 -6.5553 109° East 458 527 35,500 3,300 Level FlightAware UK
02:00 53.6900 -6.5420 109° East 494 568 37,000  Climbing FlightAware
02:01 53.6754 -6.4674 109° East 456 525 35,500 -2,940 Descending FlightAware UK
02:01 53.6625 -6.4015 108° East 458 527 35,400 3,600 Descending FlightAware UK
02:01 53.6610 -6.3960 108° East 493 567 37,000 240 Climbing FlightAware
02:01 53.6451 -6.3140 108° East 456 525 35,500 -2,580 Descending FlightAware UK
02:02 53.6320 -6.2482 109° East 456 525 35,500 3,900 Level FlightAware UK
02:02 53.6320 -6.2470 109° East 493 567 37,000  Climbing FlightAware
02:02 53.6145 -6.1609 109° East 458 527 35,500 -2,460 Descending FlightAware UK
02:02 53.6014 -6.0955 109° East 460 529 35,500 3,420 Level FlightAware UK
02:03 53.5990 -6.0840 109° East 492 566 37,000  Climbing FlightAware
02:03 53.5838 -6.0077 109° East 460 529 35,500 -2,700 Descending FlightAware UK
02:03 53.5706 -5.9425 109° East 458 527 35,500 3,720 Level FlightAware UK
02:03 53.5700 -5.9380 109° East 493 567 37,000  Climbing FlightAware
02:04 53.5532 -5.8556 109° East 458 527 35,500 -2,520 Descending FlightAware UK
02:04 53.5399 -5.7905 109° East 456 525 35,500 4,080 Level FlightAware UK
02:04 53.5410 -5.7970 109° East 493 567 37,000  Climbing FlightAware
02:04 53.5221 -5.7039 109° East 454 522 35,500 -2,400 Descending FlightAware UK
02:05 53.5089 -5.6388 109° East 458 527 35,500 3,600 Level FlightAware UK
02:05 53.5070 -5.6300 109° East 493 567 37,000  Climbing FlightAware
02:05 53.4911 -5.5522 109° East 456 525 35,500 -2,580 Descending FlightAware UK
02:05 53.4828 -5.4848 102° East 458 527 35,500 3,900 Level FlightAware UK
02:05 53.4830 -5.4830 102° East 493 567 37,000  Climbing FlightAware
02:06 53.4772 -5.3936 102° East 456 525 35,500 -2,460 Descending FlightAware UK
02:06 53.4755 -5.3246 92° East 454 522 35,500 3,420 Level FlightAware UK
02:06 53.4750 -5.3140 92° East 494 568 37,000  Climbing FlightAware
02:06 53.4724 -5.2328 92° East 454 522 35,500 -2,700 Descending FlightAware UK
02:07 53.4703 -5.1639 93° East 452 520 35,500 3,720 Level FlightAware UK
02:07 53.4700 -5.1580 93° East 495 570 37,000  Climbing FlightAware
02:07 53.4675 -5.0720 93° East 454 522 35,500 -2,520 Descending FlightAware UK
02:07 53.4654 -5.0032 93° East 454 522 35,500 3,300 Level FlightAware UK
02:07 53.4650 -4.9850 93° East 495 570 37,000  Climbing FlightAware
02:08 53.4625 -4.9106 93° East 454 522 35,500 -2,760 Descending FlightAware UK
02:08 53.4604 -4.8417 93° East 454 522 35,500 4,500 Level FlightAware UK
02:08 53.4600 -4.8460 93° East 495 570 37,000  Climbing FlightAware
02:08 53.4582 -4.7728 93° East 454 522 35,500 -2,280 Descending FlightAware UK
02:09 53.4551 -4.6809 93° East 454 522 35,500 3,060 Level FlightAware UK
02:09 53.4550 -4.6800 93° East 496 571 37,000  Climbing FlightAware
02:09 53.4518 -4.5889 93° East 454 522 35,500 -2,460 Descending FlightAware UK
02:09 53.4493 -4.5199 93° East 454 522 35,500 3,420 Level FlightAware UK
02:10 53.4490 -4.5060 93° East 496 571 37,000  Climbing FlightAware
02:10 53.4460 -4.4279 93° East 456 525 35,500  Descending FlightAware UK
02:10 53.4430 -4.3510 93° East 496 571 37,000  Climbing FlightAware
02:11 53.4401 -4.2660 93° East 458 527 35,500 -2,460 Descending FlightAware UK
02:11 53.4375 -4.1970 94° East 458 527 35,500 3,420 Level FlightAware UK
02:11 53.4360 -4.1760 94° East 497 572 37,000  Climbing FlightAware
02:11 53.4338 -4.1049 94° East 456 525 35,500  Descending FlightAware UK
02:12 53.4310 -4.0350 94° East 498 573 37,000  Climbing FlightAware
02:12 53.4255 -3.8969 94° East 456 525 35,500  Descending FlightAware UK
02:12 53.4240 -3.8680 94° East 498 573 37,000  Climbing FlightAware
02:13 53.4188 -3.7357 94° East 458 527 35,500  Descending FlightAware UK
02:13 53.4170 -3.7030 94° East 498 573 37,000  Climbing FlightAware
02:13 53.4139 -3.6197 94° East 460 529 35,500  Descending FlightAware UK
02:13 53.4124 -3.5843 94° East 498 573 37,000  Climbing FlightAware ADS-B
02:14 53.4090 -3.5055 94° East 458 527 35,500  Descending FlightAware UK
02:14 53.4068 -3.4583 94° East 495 570 37,000  Climbing FlightAware ADS-B
02:14 53.4038 -3.3903 94° East 456 525 35,500  Descending FlightAware UK
02:15 53.4015 -3.3394 94° East 491 565 37,000  Climbing FlightAware ADS-B
02:15 53.3976 -3.2549 94° East 452 520 35,500  Descending FlightAware UK
02:15 53.3960 -3.2200 94° East 488 562 37,000 5,580 Climbing FlightAware
02:15 53.3948 -3.1960 95° East 488 562 37,000 -3,780 Level FlightAware ADS-B
02:16 53.3913 -3.1191 95° East 450 518 35,500  Descending FlightAware UK
02:16 53.3889 -3.0635 95° East 488 562 37,000  Climbing FlightAware ADS-B
02:16 53.3850 -2.9607 95° East 450 518 35,500  Descending FlightAware UK
02:17 53.3830 -2.9090 95° East 486 559 37,000 2,880 Climbing FlightAware
02:17 53.3811 -2.8460 93° East 486 559 37,000 -3,000 Level FlightAware ADS-B
02:17 53.3786 -2.7801 93° East 446 513 35,500  Descending FlightAware UK
02:17 53.3765 -2.7274 93° East 486 559 37,000  Climbing FlightAware ADS-B
02:18 53.3734 -2.6463 93° East 448 516 35,500  Descending FlightAware UK
02:18 53.3710 -2.5960 93° East 486 559 37,000  Climbing FlightAware
02:18 53.3678 -2.5110 93° East 448 516 35,500  Descending FlightAware UK
02:19 53.3640 -2.4360 93° East 486 559 37,000 2,160 Climbing FlightAware
02:19 53.3611 -2.3568 93° East 486 559 37,000 -2,460 Level FlightAware ADS-B
02:19 53.3578 -2.2866 93° East 452 520 35,500 -2,100 Descending FlightAware UK
02:20 53.3504 -2.1976 98° East 452 520 35,500 1,860 Level FlightAware UK
02:20 53.3430 -2.1260 98° East 485 558 37,000  Climbing FlightAware
02:20 53.3324 -2.0197 98° East 454 522 35,500  Descending FlightAware UK
02:21 53.3280 -1.9760 98° East 485 558 37,000  Climbing FlightAware
02:21 53.3186 -1.8870 98° East 454 522 35,500 -2,400 Descending FlightAware UK
02:21 53.3114 -1.8199 100° East 456 525 35,500 3,600 Level FlightAware UK
02:21 53.3110 -1.8110 100° East 486 559 37,000  Climbing FlightAware
02:22 53.3020 -1.7314 100° East 456 525 35,500  Descending FlightAware UK
02:22 53.2925 -1.6420 100° East 486 559 37,000  Climbing FlightAware ADS-B
02:22 53.2853 -1.5759 100° East 454 522 35,500  Descending FlightAware UK
02:23 53.2790 -1.5180 100° East 486 559 37,000 3,420 Climbing FlightAware
02:23 53.2751 -1.4797 100° East 486 559 37,000 -3,360 Level FlightAware ADS-B
02:23 53.2664 -1.3989 100° East 456 525 35,500  Descending FlightAware UK
02:23 53.2619 -1.3585 100° East 487 560 37,000  Climbing FlightAware ADS-B
02:24 53.2540 -1.2877 100° East 456 525 35,500  Descending FlightAware UK
02:24 53.2496 -1.2477 100° East 487 560 37,000 2,100 Climbing FlightAware ADS-B
02:24 53.2370 -1.1335 100° East 487 560 37,000 -1,620 Level FlightAware ADS-B
02:25 53.2269 -1.0438 100° East 456 525 35,500  Descending FlightAware UK
02:26 53.2090 -0.8870 100° East 486 559 37,000  Climbing FlightAware
02:26 53.1970 -0.7782 100° East 460 529 35,500  Descending FlightAware UK
02:26 53.1930 -0.7470 100° East 485 558 37,000  Climbing FlightAware
02:27 53.1843 -0.6682 100° East 460 529 35,500  Descending FlightAware UK
02:27 53.1796 -0.6280 100° East 486 559 37,000  Climbing FlightAware ADS-B
02:27 53.1689 -0.5365 100° East 458 527 35,500  Descending FlightAware UK
02:27 53.1657 -0.5084 100° East 485 558 37,000 2,280 Climbing FlightAware ADS-B
02:28 53.1524 -0.3955 101° East 483 556 37,000 -1,980 Level FlightAware ADS-B
02:28 53.1458 -0.3390 101° East 458 527 35,500  Descending FlightAware UK
02:28 53.1386 -0.2803 101° East 482 555 37,000  Climbing FlightAware ADS-B
02:29 53.1275 -0.1866 101° East 456 525 35,500  Descending FlightAware UK
02:29 53.1205 -0.1289 101° East 480 552 37,000 1,860 Climbing FlightAware ADS-B
02:30 53.1067 -0.0145 101° East 480 552 37,000 -1,620 Level FlightAware ADS-B
02:30 53.0959 0.0738 101° East 450 518 35,500  Descending FlightAware UK
02:30 53.0905 0.1183 101° East 479 551 37,000 2,040 Climbing FlightAware ADS-B
02:31 53.0765 0.2315 102° East 478 550 37,000 -1,920 Level FlightAware ADS-B
02:31 53.0693 0.2900 102° East 452 520 35,500  Descending FlightAware UK
02:31 53.0624 0.3449 102° East 478 550 37,000  Climbing FlightAware ADS-B
02:32 53.0532 0.4190 102° East 450 518 35,500  Descending FlightAware UK
02:32 53.0465 0.4716 102° East 477 549 37,000  Climbing FlightAware ADS-B
02:32 53.0396 0.5262 102° East 448 516 35,500  Descending FlightAware UK
02:32 53.0326 0.5816 102° East 477 549 37,000  Climbing FlightAware ADS-B
02:33 53.0259 0.6341 102° East 446 513 35,500 -2,760 Descending FlightAware UK
02:33 53.0178 0.6983 102° East 448 516 35,500 3,000 Level FlightAware UK
02:33 53.0122 0.7416 102° East 477 549 37,000 2,100 Climbing FlightAware ADS-B
02:34 52.9982 0.8498 102° East 478 550 37,000 -1,920 Level FlightAware ADS-B
02:34 52.9900 0.9132 102° East 448 516 35,500  Descending FlightAware UK
02:34 52.9842 0.9573 102° East 478 550 37,000 2,040 Climbing FlightAware ADS-B
02:35 52.9702 1.0679 102° East 479 551 37,000 -1,680 Level FlightAware ADS-B
02:35 52.9608 1.1498 102° East 448 516 35,500  Descending FlightAware UK
02:35 52.9549 1.2049 102° East 480 552 37,000  Climbing FlightAware ADS-B
02:36 52.9465 1.2797 102° East 450 518 35,500  Descending FlightAware UK
02:36 52.9420 1.3181 102° East 481 554 37,000  Climbing FlightAware ADS-B
02:36 52.9341 1.3878 102° East 450 518 35,500 -2,460 Descending FlightAware UK
02:36 52.9265 1.4526 101° East 452 520 35,500 3,600 Level FlightAware UK
02:36 52.9232 1.4788 101° East 481 554 37,000  Climbing FlightAware ADS-B
02:37 52.9165 1.5397 101° East 452 520 35,500  Descending FlightAware UK
02:37 52.9079 1.6078 101° East 481 554 37,000  Climbing FlightAware ADS-B
02:37 52.9005 1.6693 101° East 452 520 35,500  Descending FlightAware UK
02:38 52.8929 1.7325 101° East 481 554 37,000  Climbing FlightAware ADS-B
02:38 52.8847 1.7993 101° East 452 520 35,500  Descending FlightAware UK
02:38 52.8810 1.8320 101° East 481 554 37,000 4,500 Climbing FlightAware
02:38 52.8760 1.8701 102° East 482 555 37,000 -4,140 Level FlightAware ADS-B
02:39 52.8690 1.9290 102° East 452 520 35,500 -1,980 Descending FlightAware UK
02:39 52.8554 2.0377 102° East 452 520 35,500 2,040 Level FlightAware UK
02:39 52.8495 2.0847 102° East 482 555 37,000  Climbing FlightAware ADS-B
02:40 52.8418 2.1457 102° East 452 520 35,500  Descending FlightAware UK
02:40 52.8240 2.2900 102° East 483 556 37,000  Climbing FlightAware
02:41 52.8147 2.3626 102° East 452 520 35,500 -2,580 Descending FlightAware UK
02:41 52.8066 2.4274 102° East 452 520 35,500 3,900 Level FlightAware UK
02:41 52.8050 2.4360 102° East 483 556 37,000 1,800 Climbing FlightAware
02:42 52.7840 2.6030 102° East 483 556 37,000 -1,380 Level FlightAware
02:42 52.7733 2.6875 102° East 452 520 35,500  Descending FlightAware UK
02:42 52.7610 2.7600 102° East 479 551 37,000 1,440 Climbing FlightAware
02:43 52.7210 2.8850 118° Southeast 476 548 37,000 -1,380 Level FlightAware
02:44 52.6887 2.9816 118° Southeast 458 527 35,500  Descending FlightAware UK
02:44 52.6770 3.0140 118° Southeast 478 550 37,000  Climbing FlightAware
02:44 52.6413 3.1129 118° Southeast 460 529 35,500  Descending FlightAware UK
02:45 52.6270 3.1510 118° Southeast 480 552 37,000 1,620 Climbing FlightAware
02:45 52.5820 3.2780 120° Southeast 482 555 37,000  Level FlightAware
02:46 52.5370 3.4040 120° Southeast 484 557 37,000 -1,440 Level FlightAware
02:46 52.5060 3.4914 120° Southeast 464 534 35,500  Descending FlightAware UK
02:47 52.4850 3.5500 120° Southeast 485 558 37,000 1,500 Climbing FlightAware
02:47 52.4390 3.6770 121° Southeast 486 559 37,000  Level FlightAware
02:48 52.3870 3.8180 121° Southeast 487 560 37,000  Level FlightAware
02:49 52.3400 3.9450 121° Southeast 487 560 37,000  Level FlightAware
02:49 52.2900 4.0800 121° Southeast 484 557 37,000 -1,320 Level FlightAware
02:50 52.2562 4.1712 121° Southeast 474 545 35,500  Descending FlightAware UK
02:50 52.2420 4.2080 121° Southeast 481 554 37,000 1,620 Climbing FlightAware
02:51 52.1960 4.3310 121° Southeast 477 549 37,000  Level FlightAware
02:52 52.1450 4.4670 121° Southeast 474 545 37,000 -1,500 Level FlightAware
02:52 52.1249 4.5199 121° Southeast 462 532 35,500 -2,760 Descending FlightAware UK
02:52 52.1041 4.5750 121° Southeast 460 529 35,500 3,600 Level FlightAware UK
02:52 52.0990 4.5890 121° Southeast 472 543 37,000 1,860 Climbing FlightAware
02:53 52.0520 4.7120 122° Southeast 470 541 37,000  Level FlightAware
02:54 52.0040 4.8390 122° Southeast 469 540 37,000 -1,260 Level FlightAware
02:54 51.9646 4.9320 122° Southeast 460 529 35,500  Descending FlightAware UK
02:54 51.9570 4.9610 122° Southeast 468 539 37,000 1,560 Climbing FlightAware
02:55 51.9070 5.0920 122° Southeast 468 539 37,000 -1,200 Level FlightAware
02:56 51.8598 5.1973 122° Southeast 464 534 35,500  Descending FlightAware UK
02:56 51.8590 5.2150 122° Southeast 466 536 37,000 2,100 Climbing FlightAware
02:56 51.8200 5.3160 122° Southeast 467 537 37,000 -1,200 Level FlightAware
02:57 51.7659 5.4467 122° Southeast 1 1 35,500  Descending FlightAware UK
02:57 51.7650 5.4560 122° Southeast 466 536 37,000 1,860 Climbing FlightAware
02:58 51.7150 5.5820 123° Southeast 467 537 37,000  Level FlightAware
02:58 51.6720 5.6910 122° Southeast 467 537 37,000  Level FlightAware
02:59 51.6150 5.8340 123° Southeast 467 537 37,000  Level FlightAware
03:00 51.5710 5.9460 122° Southeast 466 536 37,000  Level FlightAware
03:01 51.5190 6.0740 123° Southeast 467 537 37,000  Level FlightAware
03:01 51.4740 6.1880 122° Southeast 467 537 37,000  Level FlightAware
03:02 51.4180 6.3260 123° Southeast 467 537 37,000  Level FlightAware
03:03 51.3710 6.4420 123° Southeast 467 537 37,000  Level FlightAware
03:03 51.3310 6.5390 123° Southeast 467 537 37,000  Level FlightAware
03:04 51.2720 6.6830 123° Southeast 467 537 37,000  Level FlightAware
03:05 51.2270 6.7910 124° Southeast 466 536 37,000  Level FlightAware
03:06 51.1700 6.9300 123° Southeast 465 535 37,000  Level FlightAware
03:06 51.1220 7.0440 124° Southeast 464 534 37,000  Level FlightAware
03:07 51.0770 7.1510 124° Southeast 464 534 37,000  Level FlightAware
03:08 51.0250 7.2760 123° Southeast 462 532 37,000  Level FlightAware
03:08 50.9730 7.3990 124° Southeast 462 532 37,000  Level FlightAware
03:09 50.9220 7.5180 124° Southeast 459 528 37,000  Level FlightAware
03:10 50.8730 7.6100 130° Southeast 455 524 37,000  Level FlightAware
03:10 50.8090 7.7070 136° Southeast 454 522 37,000  Level FlightAware
03:11 50.7410 7.8080 137° Southeast 454 522 37,000  Level FlightAware
03:12 50.6740 7.9070 137° Southeast 455 524 37,000  Level FlightAware
03:12 50.6130 7.9950 138° Southeast 457 526 37,000  Level FlightAware
03:13 50.5530 8.0840 137° Southeast 451 519 37,000  Level FlightAware
03:14 50.5000 8.1610 137° Southeast 458 527 37,000  Level FlightAware
03:15 50.4200 8.2780 137° Southeast 459 528 37,000  Level FlightAware
03:15 50.3520 8.3770 137° Southeast 460 529 37,000  Level FlightAware
03:16 50.2790 8.4820 137° Southeast 461 531 37,000  Level FlightAware
03:17 50.2160 8.5720 138° Southeast 462 532 37,000  Level FlightAware
03:17 50.1540 8.6610 137° Southeast 463 533 37,000  Level FlightAware
03:18 50.0820 8.7640 137° Southeast 464 534 37,000 -180 Level FlightAware
03:19 50.0180 8.8550 138° Southeast 462 532 36,800 -780 Descending FlightAware
03:19 49.9570 8.9430 137° Southeast 460 529 36,000 -780 Descending FlightAware
03:20 49.8880 9.0390 138° Southeast 450 518 35,700 -720 Descending FlightAware
03:21 49.8260 9.1250 138° Southeast 432 497 35,000 -540 Descending FlightAware
03:22 49.7680 9.2060 138° Southeast 423 487 35,000  Level FlightAware
03:22 49.7050 9.2940 138° Southeast 421 484 35,000  Level FlightAware
03:23 49.6460 9.3770 138° Southeast 421 484 35,000  Level FlightAware
03:24 49.5740 9.4920 134° Southeast 428 493 35,000 -360 Level FlightAware
03:25 49.5150 9.5950 131° Southeast 441 507 34,400 -1,140 Descending FlightAware
03:25 49.4610 9.6900 131° Southeast 439 505 33,400 -1,500 Descending FlightAware
03:26 49.4040 9.7900 131° Southeast 433 498 32,300 -1,500 Descending FlightAware
03:27 49.3490 9.8850 132° Southeast 426 490 31,300 -1,560 Descending FlightAware
03:27 49.3040 9.9620 132° Southeast 422 486 30,400 -2,400 Descending FlightAware
03:28 49.2180 10.1100 132° Southeast 424 488 27,300 -2,400 Descending FlightAware
03:29 49.1670 10.1970 132° Southeast 402 463 26,200 -1,380 Descending FlightAware
03:30 49.1210 10.2750 132° Southeast 371 427 25,500 -1,200 Descending FlightAware
03:30 49.0700 10.3560 134° Southeast 345 397 24,500 -1,860 Descending FlightAware
03:31 49.0260 10.4250 134° Southeast 339 390 22,900 -2,040 Descending FlightAware
03:32 48.9820 10.4960 133° Southeast 326 375 21,800 -1,560 Descending FlightAware
03:33 48.9380 10.5670 133° Southeast 307 353 20,700 -1,320 Descending FlightAware
03:33 48.9000 10.6260 134° Southeast 297 342 20,000 -1,800 Descending FlightAware
03:36 48.7042 10.9726 120° Southeast  Level FlightAware Approximate
03:37 48.6329 11.1370 123° Southeast  Level FlightAware Approximate
03:38 48.5591 11.2986 127° Southeast  Level FlightAware Approximate
03:38 48.6620 10.9940 127° Southeast 258 297 11,700  Level FlightAware
03:38 48.6330 11.0360 136° Southeast 253 291 11,000 -2,160 Descending FlightAware
03:39 48.5880 11.0950 139° Southeast 244 281 8,700 -2,340 Descending FlightAware
03:39 48.5700 11.1210 136° Southeast 244 281 8,700  Level FlightAware
03:40 48.5560 11.1410 137° Southeast 244 281 8,700  Level FlightAware
03:40 48.5360 11.1710 135° Southeast 244 281 8,700 -1,080 Level FlightAware
03:40 48.5260 11.1790 152° Southeast 7,800 -2,700 Descending FlightAware
03:41 48.5200 11.1910 127° Southeast 246 283 7,800  Level FlightAware
03:41 48.5170 11.2470 95° East 256 295 7,800  Level FlightAware
03:42 48.5230 11.3170 83° East 254 292 7,800 -420 Level FlightAware
03:42 48.5270 11.3650 83° East 251 289 7,400 -1,020 Descending FlightAware
03:43 48.5230 11.4150 97° East 233 268 6,900 -1,080 Descending FlightAware
03:43 48.5160 11.4260 134° Southeast 232 267 6,800 -120 Descending FlightAware
03:44 48.4510 11.4330 176° South 229 264 6,800  Level FlightAware
03:45 48.4230 11.3630 239° Southwest 238 274 6,800  Level FlightAware
03:45 48.4150 11.3350 247° West 237 273 6,800  Level FlightAware
03:46 48.4080 11.2520 263° West 240 276 6,800  Level FlightAware
03:46 48.4040 11.2130 261° West 242 278 6,800  Level FlightAware
03:47 48.3890 11.1630 246° West 231 266 6,800  Level FlightAware
03:47 48.3720 11.1560 195° South 228 262 6,800  Level FlightAware
03:48 48.3400 11.1700 164° South 234 269 6,800  Level FlightAware
03:48 48.3280 11.2020 119° Southeast 243 280 6,800  Level FlightAware
03:48 48.3260 11.2280 97° East 245 282 6,800  Level FlightAware
03:49 48.3250 11.2640 92° East 245 282 6,800  Level FlightAware
03:49 48.3260 11.3110 88° East 249 287 6,800 -240 Level FlightAware
03:50 48.3320 11.3760 82° East 253 291 6,600 -900 Descending FlightAware
03:50 48.3360 11.4200 82° East 242 278 5,900 -1,440 Descending FlightAware
03:51 48.3390 11.4660 84° East 237 273 5,300 -1,200 Descending FlightAware
03:51 48.3430 11.5130 83° East 214 246 4,700 -1,200 Descending FlightAware
03:51 48.3460 11.5480 83° East 185 213 4,200 -1,020 Descending FlightAware
03:52 48.3480 11.5840 85° East 167 192 3,800 -900 Descending FlightAware
03:52 48.3510 11.6120 81° East 167 192 3,400 -1,020 Descending FlightAware
03:53 48.3530 11.6450 85° East 139 160 2,900 -780 Descending FlightAware
03:53 48.3550 11.6650 81° East 135 155 2,700 -780 Descending FlightAware
03:54 48.3580 11.6970 82° East 137 158 2,200 -840 Descending FlightAware
03:54 48.3600 11.7270 84° East 144 166 1,900 -660 Descending FlightAware
03:55 48.3620 11.7510 83° East 138 159 1,600 -660 Descending FlightAware
03:55 48.3640 11.7780 84° East 138 159 1,300 -600 Descending FlightAware